GW7195 Weather Reports


Display with metric or nautical units.
time (UTC)temp
F
wind
direction
speed
MPH
gust
MPH
rain 1hr
in
rain 24hr
in
rain mn
in
humidity
%
barometer
mb
20260906224817 77 258 4.0 5.0 0.00 0.00 0.00 48 826.7
20260906224314 77 233 1.0 2.0 0.00 0.00 0.00 48 826.7
20260906223810 76 226 4.0 5.0 0.00 0.00 0.00 48 827.0
20260906223306 77 233 2.0 3.0 0.00 0.00 0.00 50 827.0
20260906222803 76 222 3.0 3.0 0.00 0.00 0.00 50 826.7
20260906222305 76 282 5.0 6.0 0.00 0.00 0.00 49 827.0
20260906221800 75 226 2.0 3.0 0.00 0.00 0.00 51 827.4
20260906221255 75 208 3.0 3.0 0.00 0.00 0.00 53 827.0
20260906220751 76 236 11.0 14.0 0.00 0.00 0.00 51 827.4
20260906220245 75 231 5.0 6.0 0.00 0.00 0.00 51 827.0
20260906215745 75 243 6.0 9.0 0.00 0.00 0.00 52 827.4
20260906215245 76 329 9.0 10.0 0.00 0.00 0.00 51 827.4
20260906214743 75 236 4.0 5.0 0.00 0.00 0.00 52 827.4
20260906214238 76 251 1.0 2.0 0.00 0.00 0.00 51 827.4
20260906213738 74 259 5.0 7.0 0.00 0.00 0.00 52 827.4
20260906213237 73 203 2.0 3.0 0.00 0.00 0.00 53 827.4
20260906212734 73 206 2.0 2.0 0.00 0.00 0.00 53 827.4
20260906212230 73 253 3.0 5.0 0.00 0.00 0.00 52 827.4
20260906211730 74 206 4.0 6.0 0.00 0.00 0.00 52 827.4
20260906211225 75 205 1.0 2.0 0.00 0.00 0.00 51 827.4
20260906210720 76 232 5.0 8.0 0.00 0.00 0.00 51 827.4
20260906210215 76 258 7.0 8.0 0.00 0.00 0.00 51 827.4
20260906205710 75 232 4.0 6.0 0.00 0.00 0.00 52 827.7
20260906205207 77 246 6.0 8.0 0.00 0.00 0.00 51 827.7
20260906204707 78 173 2.0 2.0 0.00 0.00 0.00 49 827.7
20260906204206 80 264 4.0 5.0 0.00 0.00 0.00 44 827.7
20260906203706 79 226 1.0 2.0 0.00 0.00 0.00 44 827.7
20260906203201 81 22 5.0 10.0 0.00 0.00 0.00 43 827.7
20260906202658 80 344 5.0 7.0 0.00 0.00 0.00 43 827.7
20260906202157 79 348 4.0 6.0 0.00 0.00 0.00 43 827.7
20260906201653 80 214 2.0 3.0 0.00 0.00 0.00 44 827.7
20260906201151 77 329 5.0 7.0 0.00 0.00 0.00 44 827.7
20260906200648 79 322 4.0 6.0 0.00 0.00 0.00 44 827.7
20260906200143 76 265 7.0 8.0 0.00 0.00 0.00 46 827.7
20260906195639 77 151 1.0 2.0 0.00 0.00 0.00 45 827.7
20260906195135 81 224 3.0 5.0 0.00 0.00 0.00 42 828.1
20260906194631 82 335 2.0 2.0 0.00 0.00 0.00 39 827.7
20260906194126 82 359 5.0 7.0 0.00 0.00 0.00 39 827.7
20260906193626 80 22 2.0 5.0 0.00 0.00 0.00 38 827.7
20260906193121 80 29 3.0 5.0 0.00 0.00 0.00 41 828.1
20260906192617 82 21 3.0 3.0 0.00 0.00 0.00 37 827.7
20260906192116 80 351 3.0 5.0 0.00 0.00 0.00 40 827.7
20260906191612 81 254 3.0 5.0 0.00 0.00 0.00 38 828.1
20260906191111 80 276 1.0 3.0 0.00 0.00 0.00 40 828.1
20260906190610 80 334 4.0 6.0 0.00 0.00 0.00 40 827.7
20260906190105 81 207 4.0 6.0 0.00 0.00 0.00 40 828.1
20260906185604 80 207 1.0 2.0 0.00 0.00 0.00 39 828.5
20260906185103 80 207 5.0 6.0 0.00 0.00 0.00 41 828.5
20260906184558 79 207 4.0 6.0 0.00 0.00 0.00 40 828.5
20260906184054 78 207 3.0 5.0 0.00 0.00 0.00 41 828.5
20260906183549 79 206 3.0 3.0 0.00 0.00 0.00 42 828.5
20260906183045 77 205 2.0 2.0 0.00 0.00 0.00 41 828.8
20260906182540 78 205 4.0 5.0 0.00 0.00 0.00 42 828.8
20260906182036 78 204 1.0 1.0 0.00 0.00 0.00 42 828.8
20260906181532 79 204 3.0 5.0 0.00 0.00 0.00 40 828.8
20260906181027 78 204 1.0 1.0 0.00 0.00 0.00 40 828.8
20260906180522 80 204 4.0 5.0 0.00 0.00 0.00 39 828.8
20260906180021 79 204 2.0 3.0 0.00 0.00 0.00 41 828.8
20260906175520 78 204 4.0 5.0 0.00 0.00 0.00 39 829.2
20260906175015 78 204 4.0 6.0 0.00 0.00 0.00 41 829.2
20260906174513 78 204 4.0 5.0 0.00 0.00 0.00 42 829.2
20260906174009 80 204 3.0 5.0 0.00 0.00 0.00 42 829.6
20260906173509 77 203 2.0 2.0 0.00 0.00 0.00 45 829.6
20260906173004 77 203 4.0 6.0 0.00 0.00 0.00 44 829.6
20260906172459 76 203 3.0 3.0 0.00 0.00 0.00 44 829.6
20260906171955 77 203 1.0 1.0 0.00 0.00 0.00 46 829.6
20260906171454 76 203 4.0 5.0 0.00 0.00 0.00 45 829.6
20260906170950 76 203 3.0 5.0 0.00 0.00 0.00 45 829.9
20260906170446 75 203 3.0 5.0 0.00 0.00 0.00 47 829.9
20260906165943 76 203 2.0 2.0 0.00 0.00 0.00 45 830.3
20260906165442 75 202 3.0 5.0 0.00 0.00 0.00 45 829.9
20260906164937 76 203 3.0 3.0 0.00 0.00 0.00 45 830.3
20260906164436 75 203 4.0 5.0 0.00 0.00 0.00 45 829.9
20260906163933 75 202 1.0 2.0 0.00 0.00 0.00 46 829.9
20260906163428 75 203 5.0 6.0 0.00 0.00 0.00 45 829.9
20260906162926 75 203 5.0 6.0 0.00 0.00 0.00 45 829.9
20260906162425 75 202 2.0 2.0 0.00 0.00 0.00 46 829.9
20260906161920 75 202 1.0 2.0 0.00 0.00 0.00 47 829.9
20260906161420 75 202 3.0 3.0 0.00 0.00 0.00 48 829.9
20260906160919 74 202 1.0 2.0 0.00 0.00 0.00 49 829.9
20260906160412 73 202 1.0 2.0 0.00 0.00 0.00 51 829.9
20260906155910 74 203 3.0 3.0 0.00 0.00 0.00 49 829.9
20260906155405 74 202 1.0 1.0 0.00 0.00 0.00 50 829.9
20260906154901 74 203 3.0 3.0 0.00 0.00 0.00 49 829.9
20260906154401 75 203 1.0 2.0 0.00 0.00 0.00 48 829.6
20260906153900 74 203 3.0 3.0 0.00 0.00 0.00 47 829.9
20260906153359 75 203 2.0 2.0 0.00 0.00 0.00 47 829.9
20260906152854 73 203 2.0 2.0 0.00 0.00 0.00 48 829.9
20260906152354 72 203 3.0 3.0 0.00 0.00 0.00 51 829.9
20260906151853 72 203 2.0 2.0 0.00 0.00 0.00 53 829.9
20260906151349 71 203 1.0 1.0 0.00 0.00 0.00 51 829.9
20260906150845 71 203 1.0 1.0 0.00 0.00 0.00 52 829.9
20260906150340 71 202 0.0 1.0 0.00 0.00 0.00 54 829.9
20260906145839 71 202 1.0 1.0 0.00 0.00 0.00 52 829.9
20260906145338 69 202 1.0 2.0 0.00 0.00 0.00 53 829.9
20260906144833 66 202 0.0 1.0 0.00 0.00 0.00 60 829.9
20260906144328 66 202 0.0 0.0 0.00 0.00 0.00 61 829.9
20260906143828 66 202 0.0 1.0 0.00 0.00 0.00 63 829.9
20260906143325 65 202 1.0 1.0 0.00 0.00 0.00 70 829.9
20260906142820 65 203 2.0 2.0 0.00 0.00 0.00 64 829.9
20260906142315 65 202 0.0 0.0 0.00 0.00 0.00 77 829.6
20260906141814 60 202 0.0 0.0 0.00 0.00 0.00 84 829.6
20260906141309 59 202 0.0 0.0 0.00 0.00 0.00 82 829.6
20260906140808 57 202 0.0 0.0 0.00 0.00 0.00 86 829.6
20260906140303 56 202 0.0 0.0 0.00 0.00 0.00 84 829.6
20260906135800 56 202 0.0 0.0 0.00 0.00 0.00 84 829.6
20260906135255 56 202 0.0 0.0 0.00 0.00 0.00 84 829.6
20260906134751 55 202 0.0 0.0 0.00 0.00 0.00 87 829.6
20260906134246 54 202 0.0 0.0 0.00 0.00 0.00 89 829.6
20260906133742 53 202 0.0 0.0 0.00 0.00 0.00 86 829.6
20260906133237 52 202 0.0 0.0 0.00 0.00 0.00 90 829.6
20260906132732 51 202 0.0 0.0 0.00 0.00 0.00 93 829.6
20260906132228 51 202 0.0 0.0 0.00 0.00 0.00 95 829.6
20260906131723 50 202 0.0 0.0 0.00 0.00 0.00 97 829.6
20260906131218 50 202 0.0 0.0 0.00 0.00 0.00 95 829.2
20260906130714 50 203 0.0 1.0 0.00 0.00 0.00 94 829.2
20260906130209 50 202 1.0 1.0 0.00 0.00 0.00 97 829.2
20260906125707 49 202 1.0 1.0 0.00 0.00 0.00 97 829.2
20260906125205 49 202 1.0 1.0 0.00 0.00 0.00 97 829.6
20260906124701 49 202 1.0 1.0 0.00 0.00 0.00 97 829.2
20260906124156 49 202 0.0 0.0 0.00 0.00 0.00 97 829.2
20260906123655 49 202 0.0 0.0 0.00 0.00 0.00 97 829.6
20260906123150 49 202 1.0 1.0 0.00 0.00 0.00 98 829.2
20260906122649 49 202 0.0 1.0 0.00 0.00 0.00 97 829.6
20260906122145 49 202 0.0 1.0 0.00 0.00 0.00 97 829.2
20260906121641 50 199 1.0 1.0 0.00 0.00 0.00 97 829.2
20260906121137 50 198 2.0 2.0 0.00 0.00 0.00 97 829.6
20260906120633 50 202 1.0 2.0 0.00 0.00 0.00 98 829.2
20260906120131 50 201 1.0 1.0 0.00 0.00 0.00 98 829.2
20260906115630 50 201 1.0 1.0 0.00 0.00 0.00 98 829.2
20260906115127 50 201 2.0 2.0 0.00 0.00 0.00 98 829.2
20260906114625 50 202 1.0 1.0 0.00 0.00 0.00 98 829.2
20260906114120 50 202 1.0 1.0 0.00 0.00 0.00 99 829.6
20260906113620 50 202 0.0 0.0 0.00 0.00 0.00 98 829.2
20260906113120 50 202 0.0 0.0 0.00 0.00 0.00 98 829.2
20260906112620 50 202 2.0 2.0 0.00 0.00 0.00 98 829.2
20260906112117 50 202 1.0 2.0 0.00 0.00 0.00 99 829.2
20260906111616 50 202 1.0 1.0 0.00 0.00 0.00 99 829.2
20260906111111 50 202 1.0 1.0 0.00 0.00 0.00 99 829.2
20260906110606 50 202 1.0 1.0 0.00 0.00 0.00 99 829.2
20260906110105 50 202 0.0 0.0 0.00 0.00 0.00 99 829.2
20260906105600 50 202 0.0 1.0 0.00 0.00 0.00 99 829.2
20260906105056 51 202 0.0 0.0 0.00 0.00 0.00 99 829.2
20260906104555 51 202 0.0 0.0 0.00 0.00 0.00 99 829.2
20260906104049 51 201 0.0 0.0 0.00 0.00 0.00 99 829.2
20260906103547 51 201 1.0 1.0 0.00 0.00 0.00 99 829.2
20260906103044 51 200 1.0 1.0 0.00 0.00 0.00 98 829.2
20260906102543 51 205 0.0 0.0 0.00 0.00 0.00 99 829.6
20260906102038 51 205 1.0 1.0 0.00 0.00 0.00 99 829.2
20260906101533 51 205 0.0 1.0 0.00 0.00 0.00 99 829.2
20260906101027 51 210 0.0 1.0 0.00 0.00 0.00 99 829.2
20260906100523 50 209 0.0 0.0 0.00 0.00 0.00 99 829.2
20260906100024 50 204 0.0 0.0 0.00 0.00 0.00 99 829.2
20260906095518 50 205 0.0 0.0 0.00 0.00 0.00 99 829.2
20260906095014 50 204 0.0 0.0 0.00 0.00 0.00 99 829.2
20260906094512 50 203 0.0 1.0 0.00 0.00 0.00 99 828.8
20260906094009 50 201 1.0 1.0 0.00 0.00 0.00 99 829.2
20260906093505 50 205 1.0 1.0 0.00 0.00 0.00 99 829.2
20260906092959 50 205 0.0 0.0 0.00 0.00 0.00 99 829.2
20260906092459 50 205 0.0 0.0 0.00 0.00 0.00 99 829.2
20260906091954 50 205 0.0 0.0 0.00 0.00 0.00 99 829.2
20260906091450 51 205 0.0 0.0 0.00 0.00 0.00 99 829.2
20260906090947 51 205 0.0 0.0 0.00 0.00 0.00 99 829.2
20260906090442 51 205 0.0 0.0 0.00 0.00 0.00 99 828.8
20260906085941 50 205 0.0 0.0 0.00 0.00 0.00 99 829.2
20260906085441 50 205 0.0 0.0 0.00 0.00 0.00 99 829.2
20260906084940 50 205 0.0 0.0 0.00 0.00 0.00 99 829.2
20260906084435 50 205 0.0 0.0 0.00 0.00 0.00 99 829.2
20260906083934 50 205 0.0 0.0 0.00 0.00 0.00 99 829.2
20260906083430 50 205 0.0 0.0 0.00 0.00 0.00 99 829.2
20260906082929 50 205 0.0 0.0 0.00 0.00 0.00 99 829.2
20260906082424 50 205 0.0 0.0 0.00 0.00 0.00 99 829.2
20260906081920 50 202 2.0 2.0 0.00 0.00 0.00 99 829.2
20260906081415 50 205 0.0 1.0 0.00 0.00 0.00 99 829.2
20260906080912 50 205 0.0 0.0 0.00 0.00 0.00 99 829.2
20260906080408 50 205 0.0 0.0 0.00 0.00 0.00 99 829.2
20260906075907 50 205 0.0 0.0 0.00 0.00 0.00 99 829.6
20260906075402 50 205 1.0 1.0 0.00 0.00 0.00 99 829.2
20260906074857 50 205 0.0 0.0 0.00 0.00 0.00 99 829.2
20260906074357 50 204 0.0 0.0 0.00 0.00 0.00 99 829.6
20260906073855 50 202 0.0 0.0 0.00 0.00 0.00 99 829.2
20260906073350 50 202 0.0 0.0 0.00 0.00 0.00 99 829.6
20260906072847 51 202 2.0 2.0 0.00 0.00 0.00 99 829.6
20260906072342 51 200 0.0 1.0 0.00 0.00 0.00 99 829.6
20260906071838 51 201 0.0 0.0 0.00 0.00 0.00 99 829.6
20260906071333 50 201 0.0 0.0 0.00 0.00 0.00 99 829.6
20260906070829 51 200 0.0 1.0 0.00 0.00 0.00 99 829.9
20260906070325 51 200 0.0 0.0 0.00 0.00 0.00 99 829.6
20260906065820 51 200 1.0 2.0 0.00 0.00 0.00 99 829.9
20260906065315 51 204 1.0 1.0 0.00 0.00 0.00 99 829.6
20260906064811 51 206 0.0 0.0 0.00 0.00 0.00 99 829.6
20260906064307 51 206 0.0 0.0 0.00 0.00 0.00 99 829.6
20260906063807 51 206 0.0 0.0 0.00 0.00 0.00 99 829.6
20260906063302 51 206 0.0 0.0 0.00 0.00 0.00 99 829.2
20260906062757 51 206 0.0 0.0 0.00 0.00 0.00 99 829.6
20260906062256 51 206 0.0 0.0 0.00 0.00 0.00 99 829.6
20260906061752 51 206 0.0 0.0 0.00 0.00 0.00 99 829.9
20260906061249 51 210 0.0 0.0 0.00 0.00 0.00 99 829.6
20260906060743 52 192 1.0 1.0 0.00 0.00 0.00 99 829.6
20260906060241 51 211 0.0 1.0 0.00 0.00 0.00 99 829.6
20260906055736 51 213 0.0 0.0 0.00 0.24 0.24 99 829.6
20260906055231 52 196 0.0 0.0 0.00 0.24 0.24 99 829.6
20260906054727 52 207 0.0 0.0 0.00 0.24 0.24 99 829.9
20260906054222 52 214 0.0 0.0 0.00 0.24 0.24 99 829.9
20260906053719 53 211 1.0 1.0 0.00 0.24 0.24 99 829.9
20260906053214 53 193 0.0 0.0 0.00 0.24 0.24 99 829.9
20260906052709 53 193 0.0 0.0 0.00 0.24 0.24 99 829.9
20260906052205 53 194 2.0 2.0 0.00 0.24 0.24 99 830.3
20260906051702 53 200 2.0 2.0 0.00 0.24 0.24 99 829.9
20260906051201 54 210 1.0 2.0 0.00 0.24 0.24 99 830.3
20260906050656 53 199 3.0 3.0 0.00 0.24 0.24 99 830.3
20260906050151 53 198 2.0 2.0 0.00 0.24 0.24 98 830.3
20260906045650 54 224 3.0 3.0 0.14 0.24 0.24 98 830.3
20260906045145 54 241 4.0 5.0 0.14 0.24 0.24 95 830.3
20260906044641 53 275 5.0 7.0 0.14 0.24 0.24 94 830.3
20260906044136 53 203 2.0 2.0 0.14 0.24 0.24 95 830.3
20260906043633 54 226 2.0 2.0 0.14 0.24 0.24 96 830.3
20260906043128 54 203 1.0 2.0 0.14 0.24 0.24 97 830.3
20260906042627 53 203 2.0 2.0 0.14 0.24 0.24 96 830.3
20260906042121 54 211 2.0 2.0 0.14 0.24 0.24 95 830.3
20260906041618 54 203 3.0 5.0 0.14 0.24 0.24 96 830.3
20260906041118 54 182 5.0 6.0 0.14 0.24 0.24 96 830.3
20260906040613 54 206 3.0 3.0 0.13 0.23 0.23 93 829.9
20260906040109 57 192 3.0 5.0 0.01 0.11 0.11 87 830.3
20260906035604 67 193 1.0 2.0 0.00 0.00 0.00 63 829.9
20260906035059 67 142 5.0 6.0 0.00 0.00 0.00 48 829.6
20260906034559 68 205 5.0 6.0 0.00 0.00 0.00 46 829.9
20260906034054 68 199 0.0 0.0 0.00 0.00 0.00 47 829.6
20260906033549 68 205 1.0 1.0 0.00 0.00 0.00 46 829.2
20260906033045 68 218 3.0 3.0 0.00 0.00 0.00 46 829.2
20260906032541 68 211 3.0 3.0 0.00 0.00 0.00 45 829.2
20260906032036 67 236 3.0 6.0 0.00 0.00 0.00 46 829.2
20260906031532 67 244 2.0 2.0 0.00 0.00 0.00 47 829.2
20260906031027 67 204 2.0 2.0 0.00 0.00 0.00 46 829.2
20260906030526 68 206 2.0 3.0 0.00 0.00 0.00 46 828.8
20260906030026 68 202 2.0 2.0 0.00 0.00 0.00 45 829.2
20260906025526 67 222 3.0 3.0 0.00 0.00 0.00 46 828.8
20260906025024 67 207 1.0 1.0 0.00 0.00 0.00 49 829.2
20260906024520 67 205 1.0 1.0 0.00 0.00 0.00 48 828.8
20260906024019 66 211 1.0 1.0 0.00 0.00 0.00 49 828.8
20260906023516 65 206 1.0 1.0 0.00 0.00 0.00 51 828.8
20260906023010 63 207 3.0 3.0 0.00 0.00 0.00 52 828.8
20260906022506 63 212 0.0 1.0 0.00 0.00 0.00 54 828.8
20260906022001 63 212 0.0 1.0 0.00 0.00 0.00 54 828.8
20260906021455 63 212 0.0 0.0 0.00 0.00 0.00 54 828.5
20260906020950 64 212 0.0 1.0 0.00 0.00 0.00 53 828.5
20260906020444 64 212 0.0 0.0 0.00 0.00 0.00 53 828.5
20260906015944 64 212 1.0 1.0 0.00 0.00 0.00 53 828.5
20260906015443 64 212 1.0 1.0 0.00 0.00 0.00 53 828.5
20260906014943 64 212 0.0 1.0 0.00 0.00 0.00 52 828.8
20260906014438 64 212 1.0 1.0 0.00 0.00 0.00 52 828.5
20260906013934 65 212 0.0 0.0 0.00 0.00 0.00 52 828.5
20260906013429 65 212 0.0 0.0 0.00 0.00 0.00 52 828.5
20260906012925 66 212 0.0 0.0 0.00 0.00 0.00 52 828.5
20260906012425 67 211 0.0 1.0 0.00 0.00 0.00 49 828.5
20260906011924 68 211 0.0 0.0 0.00 0.00 0.00 48 828.8
20260906011420 69 244 2.0 3.0 0.00 0.00 0.00 46 828.5
20260906010915 70 204 1.0 1.0 0.00 0.00 0.00 45 828.5
20260906010410 71 210 0.0 1.0 0.00 0.00 0.00 45 828.5
20260906005907 71 212 0.0 1.0 0.00 0.00 0.00 43 828.5
20260906005406 72 210 0.0 1.0 0.00 0.00 0.00 42 828.5
20260906004905 72 211 2.0 2.0 0.00 0.00 0.00 41 828.5
20260906004405 72 211 1.0 1.0 0.00 0.00 0.00 41 828.5
20260906003900 72 217 1.0 2.0 0.00 0.00 0.00 41 828.5
20260906003355 73 212 1.0 2.0 0.00 0.00 0.00 41 828.5
20260906002851 74 211 1.0 1.0 0.00 0.00 0.00 40 828.5
20260906002350 75 233 2.0 2.0 0.00 0.00 0.00 39 828.5
20260906001846 75 204 1.0 1.0 0.00 0.00 0.00 39 828.5
20260906001341 75 277 1.0 1.0 0.00 0.00 0.00 39 828.5
20260906000836 75 310 3.0 3.0 0.00 0.00 0.00 39 828.5
20260906000337 75 282 6.0 8.0 0.00 0.00 0.00 39 828.5
20260905235836 75 216 0.0 1.0 0.00 0.00 0.00 39 828.5
20260905235331 75 295 6.0 8.0 0.00 0.00 0.00 38 828.1
20260905234826 75 218 3.0 5.0 0.00 0.00 0.00 38 828.5
20260905234322 76 7 2.0 2.0 0.00 0.00 0.00 38 828.5
20260905233817 77 123 1.0 1.0 0.00 0.00 0.00 37 828.5
20260905233312 77 251 4.0 5.0 0.00 0.00 0.00 37 828.1
20260905232811 77 4 4.0 6.0 0.00 0.00 0.00 37 828.1
20260905232307 78 218 1.0 2.0 0.00 0.00 0.00 36 828.5
20260905231803 78 256 4.0 5.0 0.00 0.00 0.00 36 828.1
20260905231258 77 122 2.0 2.0 0.00 0.00 0.00 36 828.1
20260905230754 76 155 3.0 3.0 0.00 0.00 0.00 37 828.1
20260905230252 76 37 4.0 5.0 0.00 0.00 0.00 37 828.1
20260905225751 78 229 2.0 2.0 0.00 0.00 0.00 36 828.5
20260905225246 79 160 1.0 2.0 0.00 0.00 0.00 35 828.1